Vorticity
nan nan nan nan nan nan nan nan nan nan nan nan nan nan nan nan nan nan nan nan nan nan nan nan nan nan nan nan nan nan nan nan nan nan nan nan nan nan nan nan nan nan nan
nan 9 7 4 6 8 8 8 8 9 8 6 5 6 6 4 8 10 11 9 8 3 4 5 5 5 4 7 7 4 5 5 6 6 5 7 8 6 7 6 7 7 nan
nan 4 10 9 7 5 9 5 8 8 10 6 5 4 8 8 8 9 10 8 9 9 4 4 5 4 5 5 6 6 6 6 6 6 7 6 6 6 6 7 7 7 nan
nan 7 6 8 10 6 4 7 5 8 8 6 6 6 7 9 5 8 5 11 13 8 10 6 4 5 5 5 5 6 6 6 7 7 7 7 6 6 7 7 7 7 nan
nan 8 10 8 2 8 13 10 8 13 6 11 5 8 7 8 4 7 8 7 7 8 17 12 7 6 5 5 5 5 5 6 6 6 7 7 7 7 7 6 7 7 nan
nan 8 10 5 7 8 7 9 9 10 8 7 7 10 9 4 9 8 8 7 10 7 4 12 10 12 10 5 6 5 5 5 6 6 7 7 7 7 7 7 7 7 nan
nan 9 7 6 7 9 7 9 10 2 9 4 11 11 10 9 7 6 7 10 8 8 8 7 9 13 14 11 9 6 6 6 6 6 7 7 7 7 8 8 7 7 nan
nan 11 5 8 9 4 6 5 6 12 7 7 5 12 13 8 7 10 9 8 5 13 10 6 9 7 10 14 12 10 6 6 6 6 7 8 8 8 8 8 8 8 nan
nan 7 6 10 8 8 12 7 4 6 9 8 6 10 11 12 10 11 6 10 10 6 8 8 9 10 7 7 15 14 9 6 6 7 8 9 10 10 10 10 10 9 nan
nan 7 9 5 6 7 11 7 7 5 12 7 7 6 8 8 11 9 10 8 12 7 8 8 9 8 8 10 8 13 12 6 8 9 9 10 11 12 13 13 13 12 nan
nan 9 7 7 5 5 8 7 6 9 8 7 11 3 9 11 3 8 14 5 9 11 9 8 6 10 8 9 13 8 5 7 9 9 9 10 10 11 13 15 15 15 nan
nan 11 9 6 6 11 8 8 5 5 5 6 8 10 10 7 9 11 6 10 9 9 8 11 7 5 9 9 11 7 8 7 8 8 8 9 9 9 11 13 13 13 nan
nan 12 9 9 7 9 6 10 7 5 9 6 6 10 9 3 10 10 8 12 8 7 9 6 7 5 7 9 7 10 16 8 7 5 6 7 8 8 10 11 12 13 nan
nan 11 9 6 8 10 7 10 5 11 10 7 7 5 10 9 5 6 10 10 10 6 4 8 8 8 7 7 9 10 10 11 6 4 5 8 8 8 9 10 12 13 nan
nan 13 9 7 9 9 9 6 10 10 6 11 6 7 7 11 10 4 5 6 9 14 9 7 8 10 4 7 6 11 11 11 3 7 4 7 10 9 9 12 12 13 nan
nan 9 15 8 8 7 9 9 9 9 7 8 8 8 5 9 6 6 9 8 5 7 9 10 9 5 8 12 4 3 10 13 21 11 5 6 8 9 12 12 11 11 nan
nan 7 8 9 9 7 8 3 6 12 10 3 8 10 7 5 8 11 8 7 8 10 7 1 7 9 6 6 5 8 9 16 20 12 9 6 7 9 11 11 9 9 nan
nan 6 8 9 8 8 9 8 8 6 10 9 8 6 8 10 7 4 6 7 7 9 11 9 7 7 9 10 8 7 7 8 14 18 12 8 8 8 9 9 8 7 nan
nan 11 7 8 8 8 8 10 10 8 8 8 8 9 9 7 7 10 9 9 11 8 7 5 5 8 9 9 11 10 10 10 15 15 10 8 10 9 10 7 7 6 nan
nan 8 9 10 8 8 11 10 6 8 9 8 8 9 9 8 9 9 6 9 8 7 9 10 10 9 9 9 11 9 6 9 10 8 10 15 13 8 7 6 7 6 nan
nan 9 9 8 9 9 10 11 9 10 8 8 9 10 8 10 9 9 11 8 9 10 7 8 9 9 9 6 6 10 11 9 8 8 8 12 12 6 9 8 7 9 nan
nan 10 9 9 8 8 11 12 10 9 9 8 9 8 10 12 10 7 6 4 6 8 9 7 8 8 9 11 8 5 7 10 10 8 8 9 7 14 15 17 15 10 nan
nan 10 8 10 10 8 10 12 9 4 8 10 8 8 10 12 10 8 8 6 6 9 7 6 8 6 5 9 9 9 8 7 8 8 9 9 10 10 11 22 17 11 nan
nan 10 11 10 9 11 13 9 9 8 8 5 9 11 6 5 11 14 9 11 10 9 9 9 8 6 7 7 8 9 10 10 11 12 9 7 8 9 14 19 12 6 nan
nan 9 10 11 10 10 13 12 8 8 9 10 10 7 8 11 10 6 10 11 8 11 17 11 9 9 9 4 4 8 9 10 10 10 10 10 9 9 16 14 13 11 nan
nan nan nan nan nan nan nan nan nan nan nan nan nan nan nan nan nan nan nan nan nan nan nan nan nan nan nan nan nan nan nan nan nan nan nan nan nan nan nan nan nan nan nan
CAPE
1623 1939 1770 1250 1625 1328 1228 1590 2151 2099 1552 1529 1114 953 841 760 616 674 458 1819 1361 1210 986 1055 837 854 765 810 619 610 871 830 617 670 748 800 1297 909 844 919 786 554 410
2317 1154 1206 1384 1582 2081 2407 2220 1979 2124 1595 1196 1521 1350 1654 1199 1264 1643 1093 989 1461 1400 1202 887 842 733 901 1295 1148 807 712 734 794 918 1033 1285 1069 919 799 860 757 580 414
1591 1320 948 1600 1488 1862 1706 1620 1414 1692 1453 1302 1736 1474 976 1614 1087 1568 1293 1563 1177 1373 1309 1064 901 816 766 804 974 905 877 937 998 1092 928 949 1039 863 808 954 1062 669 424
1544 2039 1182 1485 1079 1653 1590 2219 1805 1711 2043 1433 2014 1599 871 822 969 905 739 1314 1747 1524 1523 1569 1555 1439 1186 1003 1074 1031 1109 1202 1273 1074 970 886 796 784 734 531 646 785 612
1503 1488 1335 1418 2342 2782 2160 1227 1595 1579 1382 1365 938 1538 1193 1041 1211 626 777 877 601 901 1352 1741 1536 1343 1337 1299 1169 1082 1116 1288 1443 1466 1202 1038 981 804 723 515 358 744 710
1355 1483 1374 1350 2517 1844 1273 1712 2195 1029 1514 1445 491 730 1091 546 392 572 746 754 839 957 708 912 1628 1293 1685 1236 1112 1205 1347 1479 1524 1566 1721 1798 1514 1083 859 698 430 397 613
1444 1635 1185 1373 2339 1852 2044 1301 1179 1358 747 709 1648 589 442 507 457 238 392 447 584 779 646 899 1170 1122 1462 2099 1629 1328 1401 1467 1682 1882 2217 2439 2443 2021 1776 1575 1134 404 408
1633 1583 2253 1628 1915 1275 1581 1227 2122 2475 853 790 2019 1291 586 430 283 371 307 288 582 501 566 823 775 1209 1447 1519 2227 2236 1796 1706 1688 1758 2242 2504 2570 2562 2199 1695 1511 1369 848
1528 1671 1993 2661 1267 2303 1076 1541 1261 1906 1904 221 1431 1093 1378 904 657 592 462 397 687 522 498 599 746 1074 1471 1660 1873 2446 2264 1789 1615 1699 1900 2384 2459 2543 2593 2386 1848 1524 1353
1614 1682 1646 1733 1720 1616 2322 1126 763 2415 1519 584 250 532 1509 1764 2286 232 294 326 376 526 512 565 730 826 1336 1898 1409 1350 1795 1415 1267 1269 1406 1600 2020 2148 2303 2412 2566 2108 1656
1712 1574 1893 1900 2025 1952 1732 2123 1956 1887 540 709 506 614 1209 665 1095 1359 303 321 386 416 534 858 745 839 1448 1591 1535 1196 658 514 766 908 1150 1325 1591 1838 2081 2266 2498 2563 2671
1545 1695 1781 1984 2079 2515 2060 1516 1767 1756 2153 1970 1449 1176 1492 1261 1753 588 424 1053 672 780 762 916 1129 1184 1468 1751 2025 1440 1252 821 802 768 670 810 1137 1522 1840 1927 1921 1970 2080
942 2466 1940 2309 1876 1981 1552 2051 2445 1932 1269 1717 1723 2116 1285 1475 1590 935 2155 1003 1128 972 1134 1338 1438 1564 1770 1927 2560 1948 2338 1472 1016 1194 963 665 686 888 1215 1471 1424 1368 1393
1041 3035 1932 1633 1725 2089 1784 1836 1829 1345 2523 1506 1256 2329 2250 1409 1733 1801 1979 1397 868 1037 1314 2686 1353 1519 1908 2173 2305 2123 2305 1867 1495 1620 1328 899 684 498 753 795 672 529 457
1122 2014 1866 1781 1761 1773 1987 2437 1585 2173 2662 2046 1667 1905 2191 1593 1026 1282 1108 1223 1706 1542 1333 2189 1506 2569 2095 2068 2226 2685 2717 1474 1904 1758 1237 1056 747 419 580 376 120 34 46
1443 1366 1940 2027 1778 1698 1846 2244 2598 2505 2008 1605 979 3049 2947 1862 1112 1090 1141 1198 1319 1490 1521 1560 1576 2169 2982 2960 2530 2925 2936 2147 1982 1967 1149 1099 1022 439 378 25 4 1 0
1752 1735 2864 2198 2143 1980 1936 2756 3138 2086 1944 2309 2656 1692 2683 3725 1803 1063 957 1109 1301 1434 1409 1290 1724 2904 3273 4061 3525 3928 3042 3574 2277 1505 937 1159 973 619 123 0 0 0 0
1825 2050 2121 2199 2248 2192 2502 2685 2136 1509 1978 1999 2268 2885 1770 1691 3670 3615 1931 3773 2436 3225 1927 3909 2786 1738 3568 3571 4577 4833 3053 1959 2448 1170 951 1064 997 606 4 0 0 0 0
2298 1505 2247 2553 2055 2101 2900 2758 2816 2196 2047 1939 2014 2429 2310 2814 3235 2406 2974 1985 1812 2267 2424 2065 2265 1880 1893 2083 2885 4012 4501 3705 2635 928 367 985 898 160 0 0 0 0 0
2599 2451 2408 2850 2526 1935 2065 2358 2781 2666 2636 2386 2361 2565 2463 2686 3355 3728 2859 3779 2931 2790 2348 1676 1510 1595 1812 2656 2181 2232 1937 1391 1546 1423 1036 1635 984 0 0 0 0 0 0
2764 2648 2670 2765 2404 2123 1505 2798 2687 2676 2814 2896 2912 2602 2999 2256 1712 2464 2186 3288 3626 3162 1784 1492 1388 1427 1471 1695 2956 2335 1919 1783 2559 1466 1199 1665 1638 579 0 0 0 0 0
3201 3276 2544 2659 2666 1419 855 875 1732 2822 3262 3564 3659 3784 3684 1739 1496 1184 1345 1482 1549 3063 4449 2496 1924 2012 4356 2934 1811 1695 1688 1354 1179 1596 2035 1667 1107 954 1580 651 0 0 0
3027 3600 3194 2843 3115 2970 1033 183 757 1622 2709 3355 3268 3788 2801 1580 2196 2894 1265 1161 1109 663 344 2583 3413 3319 3354 3586 3681 4073 3042 3119 2295 1750 2000 1313 1257 1714 2085 0 0 0 0
2612 2996 2997 3528 3591 3104 1548 522 30 2208 2387 2611 2981 3396 3547 3490 3401 3197 3183 2808 2572 2586 2349 1377 1898 2509 2998 3399 3628 3334 4037 4392 3110 2721 3167 2003 1573 1518 1704 3 0 0 0
2242 2243 2547 3291 3621 3618 1795 850 0 1263 1424 2375 2660 2655 2982 3537 3015 2164 2677 3520 3464 3465 1274 1632 1751 1938 1856 1340 1137 1622 1386 998 660 535 636 580 705 959 1247 1417 0 0 0
2165 1960 2321 2564 2469 3268 2538 1463 0 1389 1545 1581 1995 2361 1387 1624 2119 2047 2757 3149 3217 3204 3319 1990 1783 894 325 1117 493 1005 1641 1574 954 631 574 593 527 880 1267 1435 288 0 0